Hourly Data Report for January 24, 2015

All times are specified in Local Standard Time (LST). Add 1 hour to adjust for Daylight Saving Time where and when it is observed.

Metadata including Station Name, Province, Latitude, Longitude, Elevation, Climate ID, WMO ID, TC ID
PUVIRNITUQ A
QUEBEC
Latitude: 60°03'08.000" N Longitude: 77°17'15.000" W Elevation: 25.30 m
Climate ID: 7106223 WMO ID: TC ID: YPX
Hourly Data Report for January 24, 2015
Temp Definition
°C

Dew Point Temp Definition
°C

Rel Hum Definition
%

Wind Dir Definition
10's deg
Wind Spd Definition
km/h

Visibility Definition
km

Stn Press Definition
kPa

Hmdx Definition

Wind Chill Definition

Weather Definition

00:00 Legend Double Dagger -27.2 -30.0 78 4 11 16.1 100.69 -36 Snow
01:00 Legend Double Dagger -26.8 -29.4 79 2 11 16.1 100.64 -36 LegendNANA
02:00 Legend Double Dagger -26.5 -29.1 79 9 5 16.1 100.63 -32 LegendNANA
03:00 Legend Double Dagger -26.6 -29.2 79 10 5 3.2 100.62 -32 Haze
04:00 Legend Double Dagger -26.7 -29.3 79 12 8 2.8 100.59 -34 Haze
05:00 Legend Double Dagger -27.3 -30.0 78 9 11 1.6 100.57 -36 Haze
06:00 Legend Double Dagger -27.7 -30.6 77 9 15 12.9 100.56 -39 LegendNANA
07:00 Legend Double Dagger -28.9 -31.8 77 8 5 16.1 100.54 -34 LegendNANA
08:00 Legend Double Dagger -28.5 -31.4 77 12 4 16.1 100.51 -33 LegendNANA
09:00 Legend Double Dagger -27.9 -30.6 78 7 8 4.0 100.49 -36 Haze
10:00 Legend Double Dagger -27.3 -30.0 78 7 13 16.1 100.48 -37 Snow
11:00 Legend Double Dagger -27.6 -30.5 77 12 11 16.1 100.51 -37 LegendNANA
12:00 Legend Double Dagger -27.8 -30.7 77 9 8 16.1 100.45 -35 LegendNANA
13:00 Legend Double Dagger -27.6 -30.3 78 10 4 16.1 100.43 -32 Snow
14:00 Legend Double Dagger -27.0 -29.8 78 LegendMM 4 16.1 100.40 -31 LegendNANA
15:00 Legend Double Dagger -26.7 -29.3 79   0 16.1 100.38 LegendNANA
16:00 Legend Double Dagger -26.7 -29.3 79   0 16.1 100.39 LegendNANA
17:00 Legend Double Dagger -26.5 -29.1 79   0 16.1 100.38 LegendNANA
18:00 Legend Double Dagger -26.3 -28.9 79 20 5 16.1 100.37 -31 LegendNANA
19:00 Legend Double Dagger -26.1 -28.7 79 21 8 16.1 100.37 -33 Snow
20:00 Legend Double Dagger -27.4 -30.2 77 24 11 16.1 100.33 -37 Snow
21:00 Legend Double Dagger -27.4 -30.1 78 25 9 16.1 100.33 -36 LegendNANA
22:00 Legend Double Dagger -26.7 -29.3 79 LegendMM 4 16.1 100.31 -31 Snow
23:00 Legend Double Dagger -27.3 -30.0 78 30 4 16.1 100.30 -32 Snow

Notes on Data Quality.

Legend
  • E = Estimated
  • M = Missing
  • NA = Not Available
  • ‡ = Partner data that is not subject to review by the National Climate Archives